Location: Baia Mare
(47.6567°N, 23.5850°E)
Time: 19:10:58
(UTC+03:00)

ISS - Pass Details

Date: 28 September 2015
Orbit: 414 x 420 km, 51.6° (Epoch: 01 July)

Event Time Altitude Azimuth Distance (km) Brightness Sun altitude
Exits shadow 05:13:20 42° 2° (N) 608 -2.9 -21.6°
Drops below altitude 10° 05:16:25 10° 66° (ENE) 1,525 0.3 -21.2°
Sets 05:18:38 0° 73° (ENE) 2,414 1.7 -20.8°
